• In Hungary
  • List of Countries
  • For 7 days
  • Water Temperature
  • Satellite Maps
  • Weather Map
  • News
  • Weather Widgets
  • user-avatar
    Login

    Hourly Weather Ramoty

    Today, 16 July, Monday

    Time Temperature Precipitation Wind Pressure Humidity
    00:00 +16°C° 0 mm 3 mps 751 mmHg 93%
    01:00 +16°C° 0 mm 3 mps 751 mmHg 95%
    02:00 +16°C° 0.5 mm 3 mps 750 mmHg 95%
    03:00 +16°C° 0.5 mm 3 mps 750 mmHg 96%
    04:00 +16°C° 0.5 mm 3 mps 750 mmHg 96%
    05:00 +18°C° 0.2 mm 3 mps 750 mmHg 93%
    06:00 +19°C° 0.2 mm 4 mps 750 mmHg 90%
    07:00 +20°C° 0 mm 4 mps 750 mmHg 86%
    08:00 +21°C° 0.7 mm 4 mps 750 mmHg 84%
    09:00 +23°C° 0.7 mm 4 mps 749 mmHg 81%
    10:00 +25°C° 0.7 mm 4 mps 749 mmHg 78%
    11:00 +23°C° 0.7 mm 4 mps 749 mmHg 80%
    12:00 +23°C° 0.7 mm 4 mps 749 mmHg 81%
    13:00 +23°C° 0.7 mm 4 mps 749 mmHg 82%
    14:00 +23°C° 0.8 mm 4 mps 749 mmHg 84%
    15:00 +22°C° 0.8 mm 4 mps 748 mmHg 87%
    16:00 +22°C° 0.8 mm 4 mps 748 mmHg 89%
    17:00 +21°C° 1.5 mm 3 mps 748 mmHg 90%
    18:00 +21°C° 1.5 mm 3 mps 748 mmHg 92%
    19:00 +20°C° 1.5 mm 3 mps 748 mmHg 94%
    20:00 +20°C° 1.5 mm 3 mps 748 mmHg 94%
    21:00 +19°C° 1.5 mm 3 mps 748 mmHg 95%
    22:00 +19°C° 1.5 mm 2 mps 747 mmHg 96%
    23:00 +19°C° 0.7 mm 2 mps 747 mmHg 96%

    Tomorrow, 17 July, Tuesday

    Time Temperature Precipitation Wind Pressure Humidity
    00:00 +19°C° 0.7 mm 2 mps 747 mmHg 96%
    01:00 +19°C° 0.7 mm 2 mps 747 mmHg 96%
    02:00 +19°C° 0.6 mm 3 mps 747 mmHg 96%
    03:00 +19°C° 0.6 mm 3 mps 746 mmHg 96%
    04:00 +19°C° 0.6 mm 3 mps 746 mmHg 97%
    05:00 +19°C° 0.6 mm 3 mps 746 mmHg 96%
    06:00 +19°C° 0.6 mm 3 mps 746 mmHg 95%
    07:00 +20°C° 0.6 mm 3 mps 746 mmHg 95%
    08:00 +20°C° 0.6 mm 4 mps 746 mmHg 93%
    09:00 +21°C° 0.6 mm 4 mps 746 mmHg 91%
    10:00 +22°C° 0.6 mm 4 mps 746 mmHg 88%
    11:00 +23°C° 0.8 mm 4 mps 745 mmHg 87%
    12:00 +23°C° 0.8 mm 4 mps 745 mmHg 86%
    13:00 +25°C° 0.8 mm 4 mps 745 mmHg 85%
    14:00 +24°C° 0.7 mm 3 mps 745 mmHg 87%
    15:00 +24°C° 0.7 mm 3 mps 745 mmHg 89%
    16:00 +24°C° 0.7 mm 2 mps 745 mmHg 91%
    17:00 +22°C° 1.7 mm 3 mps 745 mmHg 92%
    18:00 +22°C° 1.7 mm 3 mps 745 mmHg 93%
    19:00 +21°C° 1.7 mm 3 mps 745 mmHg 94%
    20:00 +21°C° 1.5 mm 3 mps 745 mmHg 95%
    21:00 +21°C° 1.5 mm 3 mps 745 mmHg 95%
    22:00 +21°C° 1.5 mm 3 mps 745 mmHg 96%
    23:00 +20°C° 0.5 mm 3 mps 745 mmHg 97%

    Day after tomorrow, 18 July, Wednesday

    Time Temperature Precipitation Wind Pressure Humidity
    00:00 +20°C° 0.5 mm 3 mps 745 mmHg 97%
    01:00 +20°C° 0.5 mm 3 mps 745 mmHg 97%
    02:00 +20°C° 0.2 mm 3 mps 745 mmHg 97%
    03:00 +20°C° 0.2 mm 2 mps 745 mmHg 97%
    04:00 +20°C° 0.2 mm 2 mps 745 mmHg 97%
    05:00 +21°C° 0 mm 2 mps 745 mmHg 95%
    06:00 +21°C° 0 mm 2 mps 745 mmHg 93%
    07:00 +23°C° 0 mm 2 mps 745 mmHg 91%
    08:00 +25°C° 0.9 mm 3 mps 745 mmHg 86%
    09:00 +26°C° 0.9 mm 3 mps 745 mmHg 82%
    10:00 +27°C° 0.9 mm 3 mps 745 mmHg 78%
    11:00 +28°C° 0.9 mm 3 mps 745 mmHg 76%
    12:00 +28°C° 0.9 mm 3 mps 745 mmHg 75%
    13:00 +29°C° 0.9 mm 3 mps 745 mmHg 74%
    14:00 +28°C° 0.9 mm 3 mps 745 mmHg 75%
    15:00 +28°C° 0.9 mm 3 mps 746 mmHg 77%
    16:00 +28°C° 0.9 mm 3 mps 746 mmHg 79%
    17:00 +27°C° 0.9 mm 3 mps 746 mmHg 82%
    18:00 +25°C° 0.9 mm 3 mps 746 mmHg 86%
    19:00 +24°C° 0.9 mm 3 mps 746 mmHg 89%
    20:00 +22°C° 0.6 mm 3 mps 746 mmHg 91%
    21:00 +22°C° 0.6 mm 3 mps 747 mmHg 92%
    22:00 +21°C° 0.6 mm 3 mps 747 mmHg 93%
    23:00 +20°C° 0.1 mm 3 mps 747 mmHg 94%

    19 July, Thursday

    Time Temperature Precipitation Wind Pressure Humidity
    00:00 +20°C° 0.1 mm 3 mps 747 mmHg 94%
    01:00 +20°C° 0.1 mm 3 mps 747 mmHg 95%
    02:00 +19°C° 0 mm 3 mps 747 mmHg 95%
    03:00 +19°C° 0 mm 3 mps 747 mmHg 95%
    04:00 +18°C° 0 mm 3 mps 747 mmHg 96%
    05:00 +20°C° 0 mm 3 mps 747 mmHg 93%
    06:00 +21°C° 0 mm 3 mps 747 mmHg 91%
    07:00 +22°C° 0 mm 3 mps 747 mmHg 89%
    08:00 +24°C° 0.1 mm 3 mps 747 mmHg 82%
    09:00 +26°C° 0.1 mm 4 mps 747 mmHg 75%
    10:00 +27°C° 0.1 mm 4 mps 747 mmHg 68%
    11:00 +27°C° 0.1 mm 4 mps 747 mmHg 67%
    12:00 +28°C° 0.1 mm 4 mps 747 mmHg 65%
    13:00 +28°C° 0.1 mm 5 mps 747 mmHg 64%
    14:00 +28°C° 0.2 mm 5 mps 747 mmHg 66%
    15:00 +27°C° 0.2 mm 5 mps 748 mmHg 68%
    16:00 +27°C° 0.2 mm 5 mps 748 mmHg 70%
    17:00 +25°C° 0.1 mm 4 mps 748 mmHg 74%
    18:00 +23°C° 0.1 mm 4 mps 748 mmHg 79%
    19:00 +22°C° 0.1 mm 3 mps 748 mmHg 83%
    20:00 +21°C° 0 mm 3 mps 748 mmHg 86%
    21:00 +20°C° 0 mm 4 mps 748 mmHg 90%
    22:00 +19°C° 0 mm 4 mps 749 mmHg 93%
    23:00 +18°C° 0 mm 3 mps 748 mmHg 94%

    20 July, Friday

    Time Temperature Precipitation Wind Pressure Humidity
    00:00 +18°C° 0 mm 3 mps 748 mmHg 94%
    01:00 +17°C° 0 mm 3 mps 748 mmHg 95%
    02:00 +17°C° 0 mm 3 mps 748 mmHg 96%
    03:00 +17°C° 0 mm 3 mps 748 mmHg 96%
    04:00 +17°C° 0 mm 3 mps 748 mmHg 97%
    05:00 +18°C° 0 mm 3 mps 748 mmHg 93%
    06:00 +20°C° 0 mm 3 mps 748 mmHg 89%
    07:00 +21°C° 0 mm 3 mps 748 mmHg 85%
    08:00 +22°C° 0.1 mm 3 mps 748 mmHg 78%
    09:00 +25°C° 0.1 mm 3 mps 748 mmHg 71%
    10:00 +26°C° 0.1 mm 4 mps 748 mmHg 64%
    11:00 +26°C° 0 mm 4 mps 748 mmHg 63%
    12:00 +27°C° 0 mm 4 mps 748 mmHg 61%
    13:00 +27°C° 0 mm 4 mps 748 mmHg 59%
    14:00 +27°C° 0.1 mm 5 mps 748 mmHg 62%
    15:00 +26°C° 0.1 mm 5 mps 748 mmHg 65%
    16:00 +26°C° 0.1 mm 5 mps 748 mmHg 68%
    17:00 +23°C° 0.1 mm 4 mps 748 mmHg 74%
    18:00 +22°C° 0.1 mm 4 mps 748 mmHg 80%
    19:00 +21°C° 0.1 mm 3 mps 748 mmHg 86%
    20:00 +19°C° 0 mm 3 mps 748 mmHg 89%
    21:00 +18°C° 0 mm 3 mps 749 mmHg 92%
    22:00 +17°C° 0 mm 3 mps 749 mmHg 95%
    23:00 +17°C° 0 mm 3 mps 749 mmHg 94%

    21 July, Saturday

    Time Temperature Precipitation Wind Pressure Humidity
    00:00 +16°C° 0 mm 3 mps 749 mmHg 92%
    01:00 +16°C° 0 mm 3 mps 749 mmHg 91%
    02:00 +15°C° 0 mm 2 mps 749 mmHg 91%
    03:00 +15°C° 0 mm 2 mps 748 mmHg 90%
    04:00 +14°C° 0 mm 2 mps 748 mmHg 90%
    05:00 +16°C° 0 mm 2 mps 748 mmHg 86%
    06:00 +17°C° 0 mm 2 mps 748 mmHg 82%
    07:00 +18°C° 0 mm 3 mps 749 mmHg 79%
    08:00 +20°C° 0 mm 3 mps 749 mmHg 73%
    09:00 +21°C° 0 mm 3 mps 749 mmHg 67%
    10:00 +24°C° 0 mm 3 mps 749 mmHg 61%
    11:00 +24°C° 0 mm 3 mps 748 mmHg 59%
    12:00 +25°C° 0 mm 3 mps 748 mmHg 57%
    13:00 +25°C° 0 mm 3 mps 748 mmHg 55%
    14:00 +25°C° 0 mm 3 mps 748 mmHg 57%
    15:00 +25°C° 0 mm 3 mps 748 mmHg 59%
    16:00 +25°C° 0 mm 4 mps 748 mmHg 61%
    17:00 +22°C° 0 mm 3 mps 748 mmHg 67%
    18:00 +21°C° 0 mm 3 mps 748 mmHg 74%
    19:00 +19°C° 0 mm 3 mps 748 mmHg 81%
    20:00 +18°C° 0 mm 2 mps 748 mmHg 85%
    21:00 +16°C° 0 mm 2 mps 748 mmHg 88%
    22:00 +15°C° 0 mm 2 mps 749 mmHg 92%
    23:00 +15°C° 0 mm 2 mps 749 mmHg 93%
    Show more